Regional Weather Roundup
Issued by NWS

Home | Current Version | Previous Version | Graphics & Text | Print | Product List | Glossary Off
Versions: 1 2 3 4 5 6 7 8 9 10 11 12 13 14 15 16 17 18 19 20 21 22 23 24 25 26 27 28 29 30 31 32 33 34 35 36 37 38 39 40 41 42 43 44 45 46 47 48 49 50

038
ASUS43 KMPX 182101
RWRMN
WEATHER ROUNDUP FOR MINNESOTA
NATIONAL WEATHER SERVICE TWIN CITIES/CHANHASSEN MN
300 PM CST THU JAN 18 2018


NOTE: "FAIR" INDICATES FEW OR NO CLOUDS BELOW 12,000 FEET WITH NO
SIGNIFICANT WEATHER AND/OR OBSTRUCTIONS TO VISIBILITY. N/A MEANS
CURRENT SKY AND/OR WEATHER CONDITIONS ARE NOT AVAILABLE.

MNZ060>063-068>070-182200-
   Twin Cities Metro

CITY           SKY/WX    TMP DP  RH WIND       PRES   REMARKS
TWIN CITIES    PTSUNNY   40  27  59 SW6       29.79F
ST PAUL        FAIR      41  25  53 VRB5      29.80F
CRYSTAL        FAIR      41  24  51 SW7       29.77F
BLAINE         PTSUNNY   43  25  49 W5        29.77F
LAKEVILLE        N/A     37  27  65 SW3       29.79F
EDEN PRAIRIE   FAIR      41  27  57 SW8       29.78F
SOUTH ST PAUL  FAIR      40  25  53 SW5       29.79S
LAKE ELMO      FAIR      39  27  60 SW7       29.79S
$$
MNZ001>005-007-008-013>017-022>024-027-028-182200-
   Northwest Minnesota

CITY           SKY/WX    TMP DP  RH WIND       PRES   REMARKS
BEMIDJI        FAIR      31  25  80 W7        29.72F WCI  24
HALLOCK        FAIR      27  21  80 S7        29.70F WCI  19
ROSEAU         CLOUDY    27  21  80 SW7       29.70F WCI  19
WARROAD        CLOUDY    27  21  80 SW8       29.69F WCI  18
CROOKSTON      FAIR      25  19  80 S3        29.74F
FOSSTON        FAIR      27  19  74 S8        29.74R WCI  18
DETROIT LAKES  FAIR      32  23  69 SW3       29.74F
MOORHEAD       FAIR      30  25  80 S3        29.76F
PARK RAPIDS    FAIR      34  24  67 CALM      29.72S
MAHNOMEN       FAIR      27  21  80 S7        29.73F WCI  19
$$
MNZ006-009>011-018-025>026-182200-
   North Central Minnesota

CITY           SKY/WX    TMP DP  RH WIND       PRES   REMARKS
BAUDETTE       CLOUDY    27  21  78 W5        29.68F WCI  22
FLAG ISLAND    FAIR      27  16  63 W10       29.67F WCI  17
INTL FALLS     CLOUDY    29  21  72 W8        29.70R WCI  21
WASKISH        CLOUDY    28  27  93 SW5       29.71F WCI  23
BIG FORK       CLOUDY    30  25  80 CALM      29.71S
LONGVILLE      FAIR      36  27  69 SW7       29.72S
GRAND RAPIDS   FAIR      35  26  69 NW5       29.73S WCI  31
CRANE LAKE     CLOUDY    28  27  93 SW3       29.72R
ORR            CLOUDY    28  21  74 W8        29.68S WCI  20
COOK           CLOUDY    28  23  80 W6        29.71R WCI  22
WALKER         FAIR      33  25  71 W5        29.72S WCI  29
$$
MNZ012-019>021-037-182200-
   Northeast Minnesota

CITY           SKY/WX    TMP DP  RH WIND       PRES   REMARKS
DULUTH         CLOUDY    34  26  72 W14       29.70R WCI  25
ELY            CLOUDY    30  27  86 W10       29.69R WCI  21
HIBBING        CLOUDY    31  24  75 VRB6      29.70R WCI  25
EVELETH        CLOUDY    30  22  70 W13       29.72R WCI  20
DULUTH HARBOR  FAIR      37  28  70 W9        29.74R
TWO HARBORS    CLOUDY    37  27  65 W10       29.68S
SILVER BAY     CLOUDY    36  25  64 W6        29.67S
GRAND MARAIS     N/A     36  29  75 CALM      29.67S
G MARAIS ARPRT CLOUDY    28  25  86 W8        29.63S WCI  20
$$
MNZ029>031-032-039>041-046>048-054>057-064-182200-
   West Central Minnesota

CITY           SKY/WX    TMP DP  RH WIND       PRES   REMARKS
FERGUS FALLS   FAIR      34  27  75 CALM      29.75S
WHEATON        FAIR      43  25  49 CALM      29.77F
MORRIS         FAIR      43  28  56 NW5       29.76S
ALEXANDRIA     FAIR      37  24  59 W6        29.75F
ELBOW LAKE     FAIR      36  27  69 NW5       29.77S
WADENA         FAIR      34  21  60 SW6       29.74S WCI  29
GLENWOOD       FAIR      37  27  65 W5        29.76R
APPLETON       FAIR      45  28  53 CALM      29.76F
BENSON         FAIR      43  28  56 W3        29.78S
ORTONVILLE     FAIR      45  27  49 CALM      29.76S
MADISON        FAIR      45  30  57 SW5       29.77F
WILLMAR        FAIR      41  28  60 SW6       29.79F
$$
MNZ033>034-036-042>043-049>051-058-059-182200-
   Central Minnesota

CITY           SKY/WX    TMP DP  RH WIND       PRES   REMARKS
ST CLOUD       FAIR      39  27  62 W5        29.76S
SAUK CENTRE      N/A     36  26  66 W5        29.76F
PAYNESVILLE    FAIR      41  29  63 W7        29.77S
AITKIN         FAIR      36  25  64 SW7       29.72F
PINE RIVER     FAIR      34  23  64 SW3       29.76F
BRAINERD       FAIR      37  24  59 W10       29.74F
STAPLES        FAIR      34  21  60 CALM      29.74S
LONG PRAIRIE   FAIR      36  27  69 SW3       29.75F
LITTLE FALLS   FAIR      37  18  44 CALM      29.75F
LITCHFIELD     FAIR      43  28  56 SW3       29.77S
BUFFALO        FAIR      39  26  59 SW6       29.79S
MAPLE LAKE     FAIR      42  29  59 MISG      29.78S
HUTCHINSON     FAIR      43  32  65 SW3       29.79S
$$
MNZ037-044-045-052-053-182200-
   East Central Minnesota

CITY           SKY/WX    TMP DP  RH WIND       PRES   REMARKS
PRINCETON      FAIR      43  25  49 SW3       29.76F
MORA           FAIR      36  23  60 SW7       29.77S
CAMBRIDGE        N/A     43  27  52 CALM      29.76F
RUSH CITY      FAIR      38  24  55 SW5       29.76F
MOOSE LAKE     FAIR      37  28  70 W6        29.71S
HINCKLEY       FAIR      37  27  65 S8        29.75S
CLOQUET        FAIR      37  25  60 SW7       29.71S
MCGREGOR       FAIR      37  28  70 W7        29.73S
$$
MNZ071>073-080-081-089-090-097-098-182200-
   Southwest Minnesota

CITY           SKY/WX    TMP DP  RH WIND       PRES   REMARKS
MONTEVIDEO     FAIR      45  27  49 W3        29.77F
GRANITE FALLS  FAIR      48  33  56 W7        29.80S
CANBY          FAIR      45  29  54 SW6       29.78F
MARSHALL       FAIR      39  29  67 SW13      29.79S
REDWOOD FALLS  FAIR      43  31  62 SW7       29.78S
OLIVIA         FAIR      43  30  61 SW8       29.77S
PIPESTONE      FAIR      34  27  75 W8        29.80R WCI  27
WINDOM         FAIR      39  19  45 SW14G21   29.80S
WORTHINGTON    FAIR      37  28  70 SW15      29.81S
JACKSON        FAIR      39  30  70 SW15G21   29.80F
SLAYTON        FAIR      35  28  77 SW13      29.79F WCI  26
$$
MNZ065>067-074>077-082>085-091>093-182200-
   South Central Minnesota

CITY           SKY/WX    TMP DP  RH WIND       PRES   REMARKS
MANKATO        FAIR      42  30  62 SW10      29.80F
NEW ULM        FAIR      45  28  53 W8        29.79F
ST JAMES       FAIR      43  30  61 SW9       29.81S
FAIRMONT       FAIR      40  28  62 SW14      29.80F
FARIBAULT      FAIR      37  28  70 S8        29.81F
OWATONNA       FAIR      36  28  75 SW8       29.81F
WASECA         FAIR      36  30  80 S9        29.82F
ALBERT LEA     FAIR      36  25  64 SW9G17    29.82F
$$
MNZ078>079-086>088-094>096-182200-
   Southeast Minnesota

CITY           SKY/WX    TMP DP  RH WIND       PRES   REMARKS
ROCHESTER      FAIR      33  27  78 S14       29.82F WCI  23
RED WING       FAIR      39  21  48 SW7       29.81S
STANTON        FAIR      36  28  71 SW6       29.80S
DODGE CENTER   FAIR      36  27  69 SW15      29.81F
WINONA         FAIR      37  27  65 SW6       29.83F
PRESTON        FAIR      34  24  68 SW12G23   29.84F WCI  25
$$
ABBREVIATIONS USED IN REMARKS
   TC - TEMPERATURES IN CELSIUS
  WCI - WIND CHILL INDEX
   HX - HEAT INDEX
  VSB - VISIBILITY
$$




USA.gov is the U.S. government's official web portal to all federal, state and local government web resources and services.